Flag for Poland Weather past 2 weeks in Bielsko-Biała, Poland

Now
72 °F

Fog.


Feels Like: 72 °F
Forecast: 64 / 77 °F
Wind: 2 mph from West

Location: Katowice

Current Time: Jul 31, 2014 at 12:03:26 PM

Latest Report: Jul 31, 2014 at 11:00 AM


Visibility: 5 mi

Pressure: 29.86 "Hg

Humidity: 81%

Dew point: 66 °F

Location of Bielsko-BiałaLocation

Historic Weather in Bielsko-Biała — Graph

°F

Bielsko-Biała temperature yesterday

Maximum temperature yesterday: 79 °F (at 5:00 PM)
Minimum temperature yesterday: 62 °F (at 4:00 AM)
Average temperature yesterday: 71 °F

Past Weeks' High & Low Weather Summary

 TemperatureHumidityPressure
High87 °F (Jul 20, 3:00 PM)98% (Jul 29, 5:00 AM)30.16 "Hg (Jul 29, 5:00 AM)
Low57 °F (Jul 26, 6:00 AM)32% (Jul 22, 3:00 PM)29.75 "Hg (Jul 30, 6:00 PM)
Average71 °F73%29.93 "Hg
* Reported Jul 16 10:00 AM — Jul 31 10:00 AM, Bielsko-Biała, Weather by CustomWeather, © 2014

Note: Actual official high and low records may vary slightly from our data, if they occured in-between our weather recording intervals... More about our weather records

Advertising

Bielsko-Biała weather history for previous 24 hours

 ConditionsComfort  
Time TempWeatherWind HumidityBarometerVisibility
10:00 AM
Jul 31
71 °FFog.1 mph82%29.85 "Hg5 mi
9:00 AM70 °FFog.1 mph84%29.84 "Hg4 mi
8:00 AM70 °FFog.1 mph86%29.82 "Hg4 mi
7:00 AM69 °FFog.1 mph89%29.81 "Hg4 mi
6:00 AM67 °FFog.1 mph96%29.81 "Hg9 mi
5:00 AM63 °FFog.1 mph96%29.81 "Hg6 mi
4:00 AM63 °FFog.No wind96%29.80 "Hg6 mi
3:00 AM63 °FFog.1 mph96%29.80 "Hg6 mi
2:00 AM65 °FFog.No wind95%29.80 "Hg9 mi
1:00 AM67 °FPassing clouds.1 mph92%29.79 "Hg9 mi
12:00 AM69 °FPassing clouds.No wind86%29.78 "Hg9 mi
11:00 PM
Jul 30
69 °FPassing clouds.1 mph88%29.78 "Hg9 mi
10:00 PM69 °FPassing clouds.No wind84%29.78 "Hg9 mi
9:00 PM72 °FOvercast.No wind75%29.78 "Hg12 mi
8:00 PM74 °FPartly sunny.2 mph72%29.76 "Hg12 mi
7:00 PM76 °FPartly sunny.1 mph66%29.75 "Hg12 mi
6:00 PM79 °FPartly sunny.2 mph56%29.75 "Hg12 mi
5:00 PM79 °FPartly sunny.3 mph57%29.76 "Hg12 mi
4:00 PM78 °FPartly sunny.6 mph61%29.77 "Hg12 mi
3:00 PM76 °FOvercast.6 mph65%29.78 "Hg12 mi
2:00 PM77 °FOvercast.1 mph69%29.78 "Hg12 mi
1:00 PM78 °FPartly sunny.5 mph53%29.78 "Hg12 mi
12:00 PM77 °FPartly sunny.3 mph57%29.78 "Hg12 mi
Weather by CustomWeather, © 2014

See weather overviewHow to use our weather pages